Погода в Сухуме

Гана     6°01′59″N   0°27′26″E
темп.,
°C
ветер,
м/с
пор.,
м/с
влажн.,
%
обл.,
%
осадки,
мм/ч
давл.,
гПа
погр.,
м
17 мая, вт
вт1700:00+23юз119799 0.8 101428
03:00+23з119840 0.4 101229
06:00+23зсз119822 0.4 101337
09:00+30зюз126716 0.0 1013697
12:00+36ю234168 0.0 10112040
15:00+36ююв353593 0.0 10082814
18:00+26з2490100 11.5 1010212
21:00+24ююз1494100 0.3 1012175
18 мая, ср
ср1800:00+24юз139737 0.3 1012113
03:00+24юз259872 0.1 1010242
06:00+23юз159934 0.1 1011223
09:00+29юз347246 0.1 1012974
12:00+32юз3255100 0.2 10111697
15:00+31ююз335956 1.4 10091246
18:00+26ююз378027 1.7 1009568
21:00+24ююз259361 0.0 1012267
19 мая, чт
чт1900:00+23зюз2698100 0.1 1012272
03:00+23зюз169978 0.1 1010271
06:00+23зюз169954 0.1 1012300
09:00+27юз3576100 0.3 1013852
12:00+31ююз3357100 0.5 10111566
15:00+30ююз346461 0.3 10091079
18:00+27ю367585 0.4 1010436
21:00+24ююз149378 0.0 1013164
20 мая, пт
пт2000:00+23юз139829 0.0 1012118
03:00+23зюз119925 0.1 101131
06:00+23юз119817 0.1 101225
09:00+29ююз246639 0.0 10141049
12:00+29ююз246756 0.5 1013890
15:00+29ююз247151 3.4 1010870
18:00+25ююз368999 10.3 1012149
21:00+24ююв1194100 9.8 101514
21 мая, сб
сб2100:00+23юз139655 10.7 101492
03:00+23юз249845 0.0 1013130
06:00+23зюз119865 0.0 101457
09:00+28юз237593 0.0 1015889
12:00+30ююз226474 1.0 10131196
15:00+27юз248189 3.9 1011527
18:00+25ююз2690100 5.0 1012244
21:00+23юз2596100 0.0 1014231